Find Starlink 36401

NORAD ID: 67696 Int'l Des: 2026-025 Owner: SPXS Country: US Constellation: starlink operational
LEOCIRCULARRETROGRADE

現在のビュー

3D地球を読み込み中...

About Starlink 36401

Starlink 36401 (NORAD 67696) is a starlink constellation satellite (v2 mini) launched Feb 7, 2026 by SPXS of US. It operates in LEO, CIRCULAR, RETROGRADE orbit with a mass of 575.00 kg.

Starlink 36401について

説明を読み込み中...

次回通過

Passes for default location (London). Set your location on the main map for personalized predictions.

高度履歴

Loading altitude history...

軌道要素

1 67696U 26025D 26194.88875851 .00021237 00000-0 65827-3 0 9997
2 67696 97.2817 305.8051 0002117 182.8009 177.3223 15.33445639 25354
Epoch: Jul 13, 2026 • Age: 20 hours

現在のステータス

高度 493.1 km
遠地点 / 近地点 N/A
速度 7.62 km/s
衛星直下点 -78.50°S, 103.5°W
打ち上げ日 Feb 7, 2026
運用期間 0.4 years
タイプ internet

技術仕様

分類 Payload
質量 575.00 kg
乾燥質量 530.00 kg
総質量 575.00 kg
長さ 0.30 m
直径 4.10 m
スパン 29.00 m
形状 Box + pan
製造者 SPXS
バスタイプ Starlink V2MO
フェーズステータス In Orbit
所有者/国 SPXS/US

Most Searched